Wind_Speed
58 59 59 59 58 57 56 55 54 53 52 51 50 49 49 49 49 49 48 47 48 49 49 48 47 48 48 50 53 54 54 53 53 52 52 54 58 63 68 68 67 67 66 66 67 68 69 69 68 66 67 67 68 71 72 74 76 77 77 75 74 73 73 74 72 73 73 73 72 62 62 67 63 59 58 57 59 61 57 55 55 53 53 51 44 41 41 46
61 61 61 59 58 57 56 55 54 52 51 50 49 48 48 49 49 50 50 49 49 50 50 50 50 49 49 51 52 53 55 54 54 53 52 53 53 57 64 68 69 68 67 66 66 67 68 69 69 68 68 66 66 67 67 70 73 74 75 74 74 73 74 75 75 75 72 74 71 62 64 67 64 60 58 60 60 60 59 57 57 55 54 51 45 42 44 49
61 60 59 58 57 56 55 54 52 51 50 49 49 49 48 48 48 50 51 51 51 51 51 51 51 51 52 52 52 53 54 55 55 53 53 54 53 53 57 63 67 69 69 68 67 67 67 68 69 69 69 68 67 66 64 66 67 69 71 71 72 72 75 77 75 74 73 76 71 64 66 68 65 62 60 62 60 60 61 59 57 56 54 50 46 45 46 49
58 58 58 57 56 55 54 53 52 52 52 51 50 50 50 49 49 49 49 51 52 52 52 53 53 53 54 54 54 53 53 55 55 53 55 56 54 53 53 57 62 67 69 70 69 67 67 68 68 68 70 69 68 66 64 63 64 66 66 67 69 71 75 75 73 75 76 75 71 67 67 68 67 63 62 63 62 63 63 60 58 56 54 50 47 47 47 50
59 59 59 58 57 56 56 55 55 55 55 54 54 53 53 52 52 51 50 50 51 52 53 54 54 55 56 56 55 54 54 54 52 53 58 56 55 54 54 54 57 62 67 69 69 69 68 67 67 68 69 69 68 67 65 64 64 64 63 63 66 69 71 70 71 75 74 73 71 69 68 70 68 64 65 65 64 66 63 58 58 57 55 52 49 48 50 53
61 61 61 61 60 60 60 59 59 59 59 58 58 57 56 55 55 54 53 52 51 51 53 54 55 56 57 57 57 56 56 54 50 55 60 57 57 56 55 55 54 56 61 66 68 69 69 68 67 67 67 67 67 67 67 67 66 64 62 61 64 65 66 67 69 72 71 71 71 69 69 70 67 66 68 67 67 67 63 59 58 57 55 55 52 51 53 53
62 62 62 63 63 63 63 63 63 62 62 61 61 61 60 59 58 57 56 55 54 52 52 53 55 56 57 58 58 57 56 55 53 56 59 58 58 57 56 56 54 54 55 60 65 67 68 68 68 67 66 66 66 66 68 69 67 65 62 61 63 62 62 64 65 66 67 68 69 68 68 67 66 69 70 68 69 67 65 64 61 57 55 54 52 52 53 53
64 63 63 64 64 65 65 65 65 65 64 64 63 64 63 63 62 60 59 58 57 55 53 52 54 56 58 58 59 58 58 58 56 57 58 58 58 58 57 56 55 53 53 56 61 64 67 68 68 68 67 66 66 66 67 69 66 65 63 62 63 61 61 62 61 62 63 64 65 65 65 65 67 69 68 68 70 68 66 65 63 61 59 56 51 52 54 53
65 65 65 65 66 66 67 67 67 67 67 66 66 65 65 65 65 64 62 61 60 59 57 54 53 55 57 58 58 58 59 61 58 58 59 57 57 58 58 57 56 54 53 54 57 61 64 66 67 68 67 67 67 65 66 67 65 66 66 65 64 61 60 60 58 59 60 61 61 60 61 63 65 66 66 69 70 67 67 65 64 63 62 58 51 52 56 54
66 66 66 67 67 68 68 68 69 69 69 69 69 68 68 67 67 66 65 64 62 61 60 58 56 55 55 57 57 57 60 63 60 59 59 58 58 58 57 58 57 56 54 53 55 57 60 63 65 67 68 68 66 64 64 64 63 65 66 65 63 62 60 58 57 56 57 57 57 57 58 61 62 62 65 69 68 65 66 65 65 64 63 61 53 53 58 57
68 68 69 69 70 70 70 70 70 71 71 71 71 71 71 70 69 68 67 66 65 63 62 61 60 57 56 55 56 59 63 63 61 60 60 59 59 57 58 58 58 57 55 54 54 55 58 61 64 67 68 67 66 64 63 62 63 63 64 65 63 63 61 57 56 55 55 55 55 56 57 59 57 58 64 65 63 63 64 64 65 64 63 62 58 58 61 61
71 72 72 73 73 74 74 74 74 74 73 73 73 73 73 72 72 70 69 68 67 65 64 64 62 60 58 55 56 63 65 62 60 60 61 61 60 59 58 58 58 58 57 56 54 55 56 59 62 64 64 66 66 65 63 62 62 60 62 65 63 63 61 57 56 54 54 54 54 56 56 56 54 57 61 60 58 58 61 64 65 65 63 61 61 61 62 62
75 75 76 77 78 78 78 78 78 78 78 77 76 75 75 75 74 73 71 70 69 68 66 67 65 63 59 56 61 67 65 63 61 60 62 62 61 61 60 59 59 59 58 57 56 56 56 57 59 60 62 64 65 64 62 61 61 59 61 64 63 63 60 57 57 55 54 54 54 55 55 54 55 58 59 57 54 52 57 63 62 63 61 59 60 61 62 62
78 79 80 81 82 83 83 83 83 83 83 82 81 79 78 78 77 76 75 73 73 71 69 68 68 67 61 60 67 69 65 64 62 61 63 63 63 62 61 60 59 59 59 59 58 58 57 56 55 57 59 61 63 63 62 61 61 60 62 63 61 61 59 58 58 56 54 53 54 54 54 54 55 57 56 55 55 53 57 59 59 60 58 56 58 60 61 61
83 84 85 86 87 87 88 88 88 88 87 86 86 84 83 82 81 80 79 78 77 74 73 71 71 70 64 65 72 69 66 65 64 64 63 62 64 64 63 62 61 60 60 60 60 59 58 56 54 56 58 59 61 60 60 61 61 61 61 60 59 58 59 60 59 56 54 53 54 53 53 54 55 56 55 53 54 53 50 49 52 56 55 53 55 58 60 61
88 89 90 91 92 92 92 92 92 91 91 90 90 89 87 86 85 85 83 82 81 78 76 74 74 73 67 70 74 71 68 66 66 67 63 62 65 65 65 64 62 62 61 62 62 60 59 57 56 57 55 57 58 57 60 63 61 61 58 57 57 57 60 61 58 55 54 54 54 53 53 54 55 55 53 52 52 51 47 45 47 48 47 47 50 54 56 60
92 93 94 95 95 96 96 95 95 94 94 93 93 92 91 90 89 88 87 86 84 82 80 76 76 74 71 74 76 73 70 67 68 69 66 65 65 66 67 66 64 64 63 63 62 61 60 59 58 56 53 54 55 56 60 60 59 59 57 58 57 56 60 60 56 56 55 54 53 53 53 54 55 53 51 52 51 48 47 44 42 41 40 42 48 52 54 59
96 96 97 97 97 97 97 97 97 96 96 95 95 94 93 92 92 91 90 89 88 85 82 79 78 77 76 77 77 75 71 68 70 71 69 68 66 67 68 67 67 66 65 64 63 62 61 60 59 56 53 52 52 54 57 56 57 58 57 57 56 57 60 57 55 57 55 53 53 53 53 54 54 49 49 53 49 46 43 36 35 34 32 38 46 49 54 57
95 95 95 95 95 95 95 95 94 94 94 94 94 94 94 94 93 93 92 92 90 87 85 83 81 79 78 79 79 77 73 71 72 72 72 71 69 68 68 68 67 66 66 65 63 62 61 60 59 54 50 49 50 52 55 56 58 59 57 57 57 58 58 57 57 57 55 53 52 53 52 54 52 47 51 52 46 43 36 27 32 35 28 30 38 43 49 53
91 91 91 91 91 92 91 91 91 90 91 92 92 92 92 93 93 93 93 93 91 89 88 87 84 81 80 81 81 79 77 74 73 73 74 73 71 70 69 68 67 67 66 65 64 63 62 60 56 52 51 51 52 54 57 59 60 60 59 58 59 57 57 60 60 56 55 53 52 52 52 53 50 48 52 50 45 41 31 26 34 38 28 26 35 42 47 49
86 86 86 86 86 86 86 86 86 86 86 88 89 89 90 91 92 92 92 92 91 90 90 89 86 83 83 84 83 82 80 77 74 73 75 75 73 72 70 69 67 67 66 65 65 64 62 58 53 53 55 55 55 56 58 60 60 60 58 57 57 55 58 64 59 54 56 54 53 53 52 52 50 49 51 48 44 41 35 32 35 33 26 29 40 44 46 49
80 79 79 79 79 80 80 80 80 80 80 81 83 85 86 88 89 91 91 91 91 90 90 91 88 85 86 86 85 85 82 79 76 74 76 77 76 73 72 70 67 67 67 67 66 63 60 56 54 56 58 58 58 57 58 60 60 59 56 56 57 56 61 64 57 53 56 55 53 53 52 51 49 49 50 46 43 41 37 34 32 31 32 39 45 45 48 52
74 74 74 74 74 75 75 75 75 75 76 76 77 78 80 82 84 87 89 88 89 89 90 91 89 88 90 88 87 87 83 80 78 76 77 78 77 75 73 72 69 68 68 66 65 62 59 56 57 59 60 60 59 57 59 60 59 58 56 58 60 60 62 63 55 52 56 55 54 53 51 50 48 47 47 45 43 41 36 30 30 37 42 47 49 49 51 52
70 70 70 70 70 70 71 71 71 71 72 73 73 73 73 75 77 79 82 83 85 87 89 91 90 89 91 90 88 87 85 83 81 79 78 78 79 77 74 73 72 69 67 65 64 62 60 60 62 62 62 61 58 58 59 58 56 58 59 61 63 61 63 62 54 54 59 58 56 53 50 49 48 47 46 45 43 40 36 34 37 43 46 48 50 50 51 50
66 66 66 66 66 66 66 66 67 67 68 69 69 68 68 69 71 71 74 76 78 83 87 90 90 90 93 92 88 87 87 85 82 80 79 78 80 79 76 74 73 70 67 65 65 64 64 64 64 64 64 61 59 60 59 56 56 60 62 62 62 61 63 60 54 56 60 58 55 52 50 51 49 47 45 44 43 40 39 39 41 44 45 48 51 52 54 53
61 61 60 60 60 61 61 61 61 61 63 64 63 63 63 64 65 65 66 68 70 76 82 86 88 90 93 91 87 88 89 87 84 81 80 79 80 81 79 76 74 72 69 67 66 66 66 65 65 65 64 61 60 61 59 56 58 61 61 62 62 62 62 58 53 55 59 59 57 53 53 54 49 45 44 44 42 39 40 41 42 44 46 48 51 52 54 55
56 56 55 55 56 56 57 56 55 55 57 58 57 58 59 59 59 59 61 61 63 70 76 80 84 87 91 90 89 91 91 87 85 83 81 81 82 82 81 78 75 74 72 70 67 65 65 66 66 65 63 60 60 61 59 58 60 61 61 63 63 61 59 55 52 55 60 62 59 55 56 55 48 45 45 43 41 39 41 44 44 46 46 49 51 51 52 51
52 51 51 51 52 52 52 51 50 51 52 53 52 53 54 54 53 54 55 56 60 67 71 73 76 82 87 88 89 91 89 88 86 83 83 83 82 82 82 79 77 76 74 70 66 65 67 68 66 63 60 60 61 62 61 61 62 62 63 64 63 59 57 55 54 57 62 64 59 57 57 53 47 46 45 42 41 39 41 44 45 45 46 49 52 51 50 48
48 48 48 48 49 49 48 46 46 47 48 48 48 49 50 49 48 49 50 52 57 62 65 69 72 77 82 83 85 88 87 88 87 85 85 85 83 82 83 81 79 78 75 71 69 68 69 67 64 61 61 63 63 63 63 62 63 64 64 63 62 60 59 58 57 59 63 63 58 56 55 51 48 48 47 43 41 40 41 45 46 47 48 50 52 50 48 46
46 45 45 45 45 45 43 42 41 42 43 43 43 45 46 47 46 46 45 50 56 59 63 67 69 72 75 76 82 85 86 88 87 86 86 85 83 83 84 83 82 80 76 73 72 71 69 65 62 62 64 66 66 65 63 61 65 65 61 62 62 61 61 59 57 60 62 58 53 54 56 54 52 50 47 44 42 42 44 47 48 49 49 49 49 47 46 45
43 42 41 42 41 40 39 38 36 36 37 37 38 40 42 43 44 44 47 54 58 59 62 65 66 68 71 74 78 81 84 86 85 84 84 84 83 83 85 84 83 81 77 75 74 70 67 63 61 64 67 68 67 65 63 63 67 64 57 61 63 63 63 60 59 60 57 50 49 56 59 58 55 51 48 47 46 45 45 46 48 50 49 48 46 44 44 43
40 38 38 38 37 36 35 34 32 31 32 33 34 36 38 40 41 45 52 57 57 57 59 61 63 66 70 73 75 77 81 83 82 84 85 84 83 83 84 83 82 80 75 74 73 68 65 62 62 68 70 67 65 65 63 65 67 59 55 63 65 64 63 60 58 55 49 47 51 58 60 58 54 50 50 51 48 45 45 45 46 47 48 47 45 45 45 43
37 35 35 34 32 32 31 29 27 26 27 28 30 32 35 37 40 45 53 56 55 55 56 59 61 65 69 72 72 75 78 80 82 84 85 84 84 84 84 83 83 80 75 75 75 71 67 64 65 69 68 64 64 64 61 63 63 55 55 64 64 63 62 57 55 51 48 50 53 57 59 57 55 54 54 52 47 46 46 47 47 46 46 46 45 46 48 47
34 32 31 30 28 28 27 25 24 22 22 24 26 29 32 36 40 45 51 54 52 52 54 57 60 62 65 68 69 72 75 78 81 84 85 84 85 85 84 84 84 81 79 79 77 71 66 64 65 67 65 62 62 59 58 62 62 55 59 65 64 62 60 56 54 52 51 52 54 57 58 55 56 58 55 49 47 49 49 49 49 47 48 47 46 46 47 48
32 30 28 26 25 24 23 22 21 19 19 20 22 25 28 33 38 42 47 49 48 49 52 55 57 59 62 65 67 70 72 76 80 83 83 83 83 83 82 83 83 82 82 80 75 68 65 65 67 67 66 64 61 58 61 66 63 59 64 66 63 61 59 57 57 55 54 54 53 55 54 53 56 57 52 49 50 53 52 51 51 50 49 48 48 47 47 48
31 28 26 25 23 22 21 20 19 18 17 18 20 22 25 28 32 36 41 42 43 47 51 53 54 57 61 64 66 68 71 75 79 81 82 82 83 82 82 83 83 82 82 79 74 67 64 68 69 68 66 64 62 63 66 66 61 61 65 63 60 61 61 59 58 56 54 52 51 52 51 51 53 55 54 52 53 55 54 53 53 52 51 50 50 50 50 48
30 27 25 23 21 19 18 18 17 16 15 16 19 21 23 25 28 32 35 37 40 45 50 53 55 58 61 61 62 64 67 71 76 79 81 82 82 82 82 83 83 83 82 80 75 68 67 70 68 66 66 64 65 67 68 66 62 63 64 61 62 66 64 61 59 57 53 51 51 49 49 49 50 53 55 53 54 57 57 55 54 54 53 51 51 52 51 46
29 26 23 19 17 14 13 13 14 14 14 14 17 21 24 27 29 32 32 33 36 42 47 52 55 57 59 59 59 61 63 68 72 76 79 81 82 82 82 82 82 82 81 79 76 70 70 70 67 66 67 65 67 68 67 65 62 63 65 65 66 66 63 60 58 55 51 51 50 47 48 50 50 52 52 52 55 58 58 57 56 55 54 53 53 53 50 45
26 23 19 15 12 9 7 8 9 11 12 13 15 19 24 28 30 31 32 32 34 37 43 50 53 55 56 57 59 60 62 66 71 74 77 80 81 82 82 81 81 81 79 78 75 70 70 69 66 66 66 66 69 68 64 62 61 64 67 67 64 63 62 61 58 54 51 52 51 49 48 50 51 50 50 52 55 58 59 58 57 57 56 55 55 53 49 47
26 21 16 13 10 6 4 3 4 7 9 11 15 18 22 26 29 31 31 32 32 35 41 47 51 54 56 57 59 60 62 66 69 72 75 78 80 82 81 80 80 79 78 77 73 70 70 68 66 66 66 67 67 63 59 59 62 65 66 64 62 62 62 60 56 54 52 53 53 51 49 50 50 49 49 50 54 58 60 59 58 57 57 55 55 54 52 53
27 22 17 13 10 7 5 3 0 3 6 10 13 17 20 24 27 30 32 32 32 35 40 45 50 54 55 56 58 60 62 64 66 69 73 76 77 79 79 79 79 78 77 75 71 69 69 66 64 65 65 65 63 59 59 61 64 66 66 63 61 60 59 57 55 55 55 55 54 52 51 51 51 48 47 50 52 56 60 60 58 57 56 55 54 54 56 57
27 22 17 12 10 9 6 5 4 3 5 8 10 14 18 21 25 29 31 33 34 36 39 43 48 52 54 55 57 59 61 62 63 65 68 71 72 75 76 75 76 76 74 72 68 68 67 64 63 65 65 65 64 63 62 64 65 66 66 66 64 62 58 56 56 57 58 57 56 54 53 53 52 49 48 49 50 54 57 57 57 54 53 56 57 57 58 59
26 21 16 13 11 9 7 7 6 7 8 10 12 14 17 20 22 26 30 34 37 38 38 39 41 45 49 54 56 57 58 60 61 63 65 66 69 71 72 73 75 75 72 70 69 69 67 64 65 67 67 67 67 65 65 66 66 64 66 68 66 61 59 58 59 60 60 59 56 54 52 50 51 50 49 49 50 52 54 55 55 52 50 55 60 60 59 58
25 20 16 13 11 9 8 8 8 9 11 14 16 18 21 24 26 28 31 34 36 36 36 36 37 40 45 51 54 56 56 58 60 61 62 64 66 68 69 72 73 71 68 69 68 67 64 63 65 68 67 66 65 64 63 62 60 60 64 67 63 60 61 61 62 62 61 59 57 55 53 52 52 52 51 51 50 50 52 55 55 52 52 56 60 61 60 59
22 18 14 13 11 10 9 9 9 10 12 14 16 19 22 27 32 35 36 38 38 37 36 35 36 39 44 49 53 55 57 58 59 59 61 63 65 66 69 70 70 68 68 69 67 65 63 63 66 66 63 61 60 57 55 54 54 59 64 66 63 62 62 61 61 61 60 58 57 56 56 54 53 53 53 53 52 51 53 53 53 54 57 58 59 60 60 59
20 16 13 12 12 12 11 11 11 12 14 15 17 19 22 26 30 34 36 38 40 40 39 38 38 39 42 47 52 55 57 58 58 59 61 62 63 65 67 67 67 67 68 66 63 62 63 64 65 64 62 62 60 57 56 57 59 61 64 64 62 61 61 59 59 60 59 58 57 58 58 56 53 52 53 55 55 55 55 54 53 57 59 59 58 59 59 59
18 14 12 11 12 13 13 13 13 14 15 15 17 20 22 24 27 30 34 37 39 40 41 40 40 40 41 45 51 55 58 59 60 60 60 60 61 63 64 65 66 65 64 61 59 61 63 63 63 63 63 64 62 60 61 62 62 62 63 63 62 62 60 58 57 57 58 57 57 58 60 59 56 53 53 55 55 57 58 57 57 58 59 59 59 58 59 60
16 12 11 10 12 14 14 15 16 16 16 16 18 19 20 23 25 28 32 34 37 39 41 41 41 40 41 44 49 55 58 59 60 61 61 61 63 63 64 64 64 62 60 59 60 62 62 60 61 62 63 61 59 60 63 63 64 64 63 62 62 61 58 55 55 56 55 53 56 59 60 59 57 56 55 53 52 55 59 59 58 58 58 59 59 59 59 59
16 12 10 10 12 14 16 17 17 18 18 18 19 21 22 23 25 27 29 32 34 36 38 40 40 40 40 43 48 53 57 59 59 59 58 60 61 61 62 62 60 59 59 60 61 61 59 59 61 62 61 60 60 63 64 63 64 64 62 61 61 59 56 54 55 54 52 51 56 58 58 57 57 57 56 52 49 52 57 59 59 58 58 59 60 59 59 58
14 12 11 12 13 15 17 18 19 19 20 20 20 22 23 24 25 26 28 30 32 33 34 36 37 38 40 43 48 52 55 56 55 55 55 56 57 58 59 59 58 58 58 59 59 58 58 59 60 60 61 61 61 61 61 60 61 63 63 63 63 61 59 57 55 54 53 54 57 57 55 55 56 55 54 54 54 54 55 57 58 59 59 59 60 59 59 58
12 12 13 14 16 17 18 19 20 21 21 21 22 23 23 25 25 26 27 28 30 32 32 33 35 37 39 42 45 48 51 53 53 53 54 54 54 55 56 56 56 57 57 57 57 57 58 58 58 60 59 58 58 59 60 61 63 63 63 63 63 61 59 57 55 55 55 56 57 55 54 54 54 53 53 55 56 56 55 55 56 57 58 58 59 60 59 56
11 11 14 16 17 19 20 20 21 22 22 23 23 23 24 25 25 26 27 27 28 30 31 32 34 37 39 41 43 44 46 48 51 52 53 54 55 55 55 55 55 56 57 57 57 58 57 57 58 58 57 57 58 60 61 63 63 62 61 61 60 59 58 57 55 55 54 53 53 53 54 55 54 53 54 56 56 56 56 55 54 55 56 57 59 59 58 55
Wind_Direction
288 288 288 287 286 285 284 283 281 280 279 277 275 272 269 266 264 262 260 258 258 257 257 258 258 257 256 255 253 253 252 252 251 249 249 247 243 241 241 240 240 240 240 240 239 239 239 239 239 239 239 239 239 239 239 240 241 242 243 243 243 243 243 244 243 243 244 246 247 246 245 248 249 248 249 249 249 251 251 249 250 249 250 252 254 257 259 259
287 287 287 286 285 284 283 282 281 280 279 278 276 274 272 269 266 263 260 257 256 255 256 256 256 256 256 255 254 253 252 252 251 250 249 248 245 243 242 240 240 240 240 240 239 239 239 239 239 239 239 239 239 239 239 240 241 241 242 242 242 242 243 243 243 244 245 246 247 245 245 247 248 247 247 247 248 251 251 250 250 250 251 252 253 252 254 257
286 286 285 285 284 283 282 281 280 279 278 278 277 276 274 272 269 265 261 257 254 253 253 254 254 255 255 255 254 253 252 251 250 250 251 249 247 245 244 242 240 239 239 239 239 239 239 239 239 239 239 239 239 240 239 239 241 241 242 242 242 242 242 242 243 244 244 246 246 244 244 246 247 246 245 247 248 249 250 249 250 251 251 253 252 251 252 255
286 286 285 284 283 282 281 280 279 278 278 277 276 276 275 274 272 269 265 260 255 252 252 252 252 253 253 254 253 253 252 251 250 250 250 250 248 246 246 244 241 239 239 239 238 238 238 238 238 238 239 239 239 239 239 240 240 241 241 241 241 241 242 242 243 243 243 245 246 244 244 246 246 245 245 246 246 247 248 249 251 251 252 252 251 251 251 251
287 286 284 283 282 281 280 279 278 277 276 276 275 275 274 274 273 271 268 264 259 254 251 251 252 252 252 252 252 252 252 251 251 250 249 249 249 247 246 246 243 241 239 239 238 238 238 238 238 238 238 238 239 239 239 239 240 240 240 240 240 241 242 242 242 243 243 244 245 244 243 244 245 246 245 245 245 246 247 249 250 250 251 250 250 250 251 251
285 284 283 282 281 280 279 278 277 276 275 274 274 273 272 272 271 270 269 267 263 258 254 251 251 251 252 251 251 251 251 251 250 248 248 247 248 247 247 246 245 243 241 239 238 238 238 238 238 238 238 238 238 238 238 238 239 240 239 240 240 241 241 241 241 243 243 244 244 243 242 243 245 245 244 244 245 246 247 247 248 250 250 250 249 249 251 253
282 281 281 280 279 278 278 277 276 275 274 273 272 272 271 270 269 268 267 266 264 262 258 254 252 251 251 251 250 250 250 250 248 247 248 247 246 247 247 247 246 245 243 241 239 238 237 237 237 238 238 238 237 236 237 237 238 239 239 240 241 240 241 241 241 242 242 243 243 243 242 243 243 243 243 244 245 246 246 246 247 248 249 249 249 251 252 253
280 279 278 277 277 276 276 276 275 274 273 272 271 270 270 269 268 267 266 264 263 262 260 258 255 253 251 251 250 249 249 249 247 247 248 247 246 246 246 247 246 246 245 243 240 238 237 236 236 236 237 237 237 236 236 237 237 239 239 239 240 240 240 241 240 241 242 242 242 242 242 242 241 242 243 243 244 245 245 246 246 246 247 248 248 250 251 251
279 277 276 275 275 274 274 273 273 273 272 271 270 269 268 268 267 266 264 263 262 261 259 258 257 255 253 252 250 249 249 248 246 246 247 247 246 246 246 246 246 246 245 244 242 240 238 237 236 236 236 236 236 235 236 237 236 237 238 238 239 240 240 241 240 241 241 241 242 242 242 241 241 242 242 242 243 243 245 245 246 246 246 247 245 246 248 249
278 276 275 274 273 272 272 271 271 270 270 270 269 268 267 266 265 264 263 261 260 259 258 257 257 257 256 254 252 250 249 247 244 245 246 246 246 245 245 245 244 244 244 244 243 241 239 237 236 236 235 235 235 235 236 237 236 236 237 237 239 240 240 240 240 240 241 241 241 241 241 241 241 241 241 242 242 243 244 245 245 246 245 244 241 242 245 246
278 276 275 274 272 271 270 270 269 268 268 267 267 266 265 264 263 262 261 260 259 257 256 256 255 256 257 256 255 252 250 247 244 243 245 245 245 244 244 244 243 242 242 243 243 242 240 238 237 236 235 235 235 235 235 235 235 235 237 237 237 239 239 239 240 240 241 240 240 240 239 240 240 241 241 242 242 243 243 244 244 244 245 245 243 243 245 245
278 276 275 273 272 271 270 269 268 267 266 265 265 264 264 263 261 260 258 258 257 256 255 254 254 254 256 257 256 253 250 247 245 243 243 244 243 243 242 243 242 240 241 242 242 242 241 239 238 237 236 235 234 234 234 235 235 234 236 236 236 237 238 239 240 240 240 240 239 239 239 240 239 239 241 241 241 243 244 243 243 244 244 245 245 245 246 246
277 275 274 273 272 271 269 268 267 266 265 264 262 261 261 260 259 258 256 255 254 254 253 252 251 252 254 255 254 252 250 248 246 244 243 242 242 242 241 241 241 240 239 241 241 242 242 241 240 238 236 236 235 234 234 235 235 234 235 236 234 236 237 237 238 238 239 239 239 239 238 238 237 238 240 240 237 238 241 242 243 244 244 245 246 247 247 247
276 275 273 272 271 270 269 268 266 265 264 263 261 259 258 257 256 256 255 253 253 252 252 251 250 250 251 252 252 252 251 249 247 245 243 241 241 241 241 240 240 239 239 239 241 241 242 242 242 240 237 236 235 234 233 234 235 233 234 235 234 235 235 235 237 236 237 238 238 238 238 237 237 238 239 239 237 235 239 242 243 244 244 244 244 247 249 250
276 274 273 271 270 269 268 267 265 264 263 262 260 258 256 255 254 253 253 252 252 251 250 249 249 249 249 249 251 252 251 248 247 245 243 242 241 240 240 239 239 239 239 239 240 241 242 243 242 241 238 236 235 233 233 234 234 233 234 235 235 234 234 234 235 236 236 237 237 237 237 236 237 238 239 239 239 238 238 240 241 243 244 246 248 250 251 252
275 274 272 271 269 268 267 266 265 263 262 261 260 258 256 254 252 251 251 251 250 250 249 248 248 248 247 247 249 250 249 247 246 245 244 243 242 240 239 238 238 238 238 239 240 240 241 241 240 240 239 238 235 232 232 232 232 233 233 235 234 234 234 234 233 234 234 235 236 236 236 236 236 237 238 238 239 238 236 237 239 242 245 249 252 253 252 253
275 274 273 271 270 269 268 267 266 264 263 261 260 258 256 254 251 249 248 248 248 248 248 247 246 246 245 245 247 248 247 246 245 244 243 243 241 240 239 237 237 237 237 238 239 239 240 240 241 241 241 240 237 233 232 233 233 234 234 234 234 233 234 233 232 233 233 234 235 235 235 236 236 236 237 238 238 238 238 240 242 243 245 246 251 255 255 256
277 276 275 274 272 271 270 268 267 265 264 262 260 258 256 254 251 249 247 246 246 246 246 245 245 244 243 244 245 246 245 245 244 243 242 242 241 240 239 237 236 236 237 237 238 239 239 240 241 241 241 241 240 237 235 234 233 233 232 234 234 232 234 232 230 232 232 232 233 234 234 235 236 234 234 237 237 237 239 243 248 247 244 247 253 259 257 256
280 279 277 275 274 272 271 269 267 265 264 262 260 258 256 254 252 249 248 246 245 244 244 244 243 242 242 242 243 243 243 242 242 241 240 240 240 240 239 238 236 236 236 237 238 238 239 240 241 242 243 244 242 238 235 232 231 231 229 231 231 231 233 232 229 230 229 230 231 233 234 235 236 233 232 236 236 235 234 233 242 244 240 244 252 255 255 255
282 280 278 276 275 273 271 269 267 265 263 261 259 257 256 254 252 250 248 246 245 243 243 242 242 241 240 240 241 241 241 240 239 239 239 238 239 240 239 238 237 236 235 236 237 237 238 239 240 241 241 240 238 235 234 231 230 230 228 229 230 229 231 231 228 227 228 228 229 231 232 234 234 232 233 235 234 233 226 215 230 241 239 239 244 246 249 251
283 281 279 277 275 273 272 270 268 265 263 261 259 257 255 253 251 250 248 246 245 243 242 242 241 240 239 239 239 239 239 238 237 237 238 237 237 239 239 239 237 236 235 235 235 236 236 237 238 239 238 236 235 233 232 231 230 230 228 230 232 230 231 232 227 226 228 227 228 230 231 232 232 231 232 234 232 231 225 213 217 230 231 232 238 240 242 245
284 281 279 277 275 273 271 270 268 266 263 261 259 256 254 252 251 249 248 246 244 243 241 241 240 238 238 237 237 237 237 236 235 235 236 235 235 237 238 238 237 236 235 234 234 234 235 237 237 237 237 235 235 234 232 231 230 229 228 229 230 228 231 232 226 225 229 227 227 229 230 231 231 230 232 233 231 228 226 215 211 216 219 225 230 233 239 243
284 282 280 277 275 273 271 269 268 266 264 261 259 256 254 252 250 248 247 245 244 243 241 241 239 237 237 236 235 235 235 235 234 233 233 233 233 234 236 237 237 236 234 234 233 233 233 234 234 235 236 235 235 234 233 232 230 228 227 228 229 227 229 231 225 224 229 228 226 227 229 230 230 231 232 232 230 226 224 215 213 217 217 222 225 227 233 239
285 283 280 278 276 274 272 270 268 265 264 261 259 257 254 252 249 247 246 244 243 241 240 240 238 236 236 235 234 234 234 233 233 232 232 232 232 232 234 235 236 235 235 233 232 231 230 230 230 231 232 233 233 233 233 233 231 228 227 227 228 227 229 230 223 222 227 227 225 225 228 229 228 228 229 229 228 224 219 211 213 220 219 221 225 226 229 232
286 284 282 279 277 275 273 270 268 266 264 262 260 258 255 252 250 247 245 243 241 240 238 238 237 235 235 235 233 232 233 232 232 231 231 230 230 231 232 233 235 235 234 233 231 230 229 229 229 229 230 230 230 231 233 232 229 227 227 228 229 228 229 229 223 223 227 227 225 224 227 228 225 225 225 226 225 220 216 211 213 222 224 224 226 227 228 232
289 286 284 281 278 276 273 271 268 266 264 262 260 259 256 253 250 247 244 241 239 238 237 236 235 234 234 233 231 231 231 231 231 230 230 229 229 229 229 231 233 234 233 232 230 229 228 228 229 230 231 231 230 230 231 229 227 227 227 228 229 229 230 228 225 225 227 227 225 222 226 227 224 223 224 224 223 218 215 211 211 220 227 228 229 229 230 232
291 288 286 282 279 276 274 271 269 267 264 262 261 258 256 253 250 247 244 240 237 236 235 233 233 232 233 232 230 229 230 230 229 229 228 228 227 227 228 229 231 232 232 231 230 229 229 228 228 229 231 232 232 231 230 227 226 226 226 227 229 229 230 228 226 226 227 227 224 221 225 226 222 223 223 222 222 217 214 213 210 214 225 231 232 230 231 233
293 290 287 284 280 277 275 273 270 267 264 262 259 257 255 252 249 246 243 239 235 233 232 231 230 230 230 229 228 228 228 229 228 228 228 227 226 226 226 227 229 231 232 231 230 229 228 228 228 229 230 231 231 231 230 228 227 226 225 226 227 228 229 227 224 225 226 226 223 221 225 224 221 223 223 220 220 217 214 214 213 214 222 230 231 230 231 232
296 293 289 285 282 279 277 274 270 266 263 260 257 254 252 250 246 242 239 236 234 232 230 229 228 228 228 227 226 227 227 227 227 226 226 226 225 224 225 226 227 229 231 231 229 228 227 227 226 227 228 228 228 228 230 230 229 227 225 225 226 226 227 226 224 224 226 225 222 222 225 224 221 223 222 219 217 216 213 214 215 217 221 226 229 230 230 229
300 296 292 287 284 282 280 276 271 267 263 259 255 251 249 246 243 239 235 233 231 228 227 226 225 226 226 225 224 224 224 225 225 225 225 225 224 223 223 225 226 228 229 229 229 228 228 226 224 225 226 227 227 227 228 228 229 229 225 225 226 226 227 226 224 226 227 226 223 223 225 224 221 222 221 219 216 215 214 213 215 217 221 226 227 229 231 230
303 298 294 290 287 285 281 277 273 268 263 258 253 248 245 241 238 234 230 228 226 223 222 222 221 222 223 223 223 222 222 223 223 223 224 224 224 222 223 224 225 227 228 229 230 229 228 227 224 224 225 226 227 227 227 226 228 230 225 224 225 225 227 226 225 227 228 226 225 225 225 224 222 221 221 221 217 217 218 216 216 217 220 224 227 231 234 230
306 301 296 292 290 287 282 278 273 266 260 255 249 244 240 237 232 227 226 226 224 221 220 219 218 218 219 220 220 219 220 220 220 221 222 222 222 222 223 223 225 227 228 231 232 230 229 227 224 225 226 226 227 227 227 227 229 230 224 223 224 224 226 226 226 228 227 225 225 225 226 225 224 222 222 222 219 219 221 221 220 219 218 219 223 231 234 227
308 304 299 296 293 289 284 280 274 265 256 248 243 237 233 230 226 223 224 225 222 219 217 216 215 215 216 217 217 217 217 217 217 218 220 220 220 220 220 221 223 225 225 228 230 229 228 227 225 226 228 228 228 228 228 230 233 231 225 224 226 226 227 227 228 228 226 225 225 226 226 225 224 223 223 223 221 222 224 224 223 221 219 217 217 225 230 227
312 308 304 301 297 292 288 283 276 266 254 245 238 232 227 225 222 220 222 223 220 217 215 214 214 214 215 215 215 215 216 215 215 216 218 218 219 219 219 220 222 223 223 226 227 226 226 227 227 229 229 229 230 230 228 229 231 228 223 224 225 226 226 226 227 226 225 225 224 226 226 224 224 225 223 223 224 225 225 225 224 223 222 218 215 221 228 228
319 316 312 309 304 298 292 287 280 270 257 245 236 230 225 222 221 220 221 222 218 214 213 213 212 212 213 213 213 213 213 213 214 215 216 217 218 219 219 220 222 223 224 227 228 226 224 224 225 226 227 227 228 229 227 227 227 223 221 223 223 224 224 223 224 224 223 224 224 226 227 224 224 226 225 223 226 228 226 227 227 225 224 222 219 222 225 227
325 323 321 317 311 304 297 291 284 273 258 244 232 226 221 219 219 220 221 221 216 212 211 210 210 210 211 211 211 211 211 211 212 214 215 215 216 217 217 219 221 222 224 227 228 227 225 225 224 224 224 224 224 225 225 227 228 223 222 223 223 223 222 222 223 223 223 224 224 226 227 225 224 225 224 221 223 228 227 226 227 227 225 224 223 224 224 224
331 329 327 321 313 305 298 290 283 273 258 241 227 218 212 210 212 215 217 217 213 210 208 207 207 207 209 210 210 210 210 210 211 212 213 214 215 216 216 218 219 221 223 226 227 225 224 226 225 224 223 223 222 223 224 225 225 223 222 223 221 221 220 220 223 223 223 224 224 224 227 226 224 225 224 221 223 227 227 226 227 227 227 226 226 226 225 223
336 333 330 322 313 305 297 286 276 266 255 238 221 211 205 201 202 206 208 209 208 206 206 206 206 207 207 207 207 208 209 209 210 211 211 212 213 215 217 218 219 221 223 225 226 224 223 225 224 223 223 222 222 223 223 224 224 222 221 220 220 221 221 220 222 223 223 225 225 223 226 226 223 223 224 221 222 227 228 227 227 228 228 227 227 227 226 223
340 335 331 326 319 313 304 285 266 253 242 227 212 205 202 199 197 198 200 201 201 201 202 204 205 206 206 205 204 205 206 208 209 210 211 212 212 214 216 217 219 222 223 225 225 224 225 225 224 223 223 222 222 223 222 223 223 222 221 220 219 220 221 220 221 221 222 225 225 222 225 227 224 223 223 222 223 227 228 228 227 228 229 230 230 228 225 224
344 340 340 343 343 342 340 310 258 234 222 211 201 196 197 197 194 192 192 194 194 194 197 201 203 204 204 204 203 203 204 206 207 208 209 211 212 214 215 216 219 221 223 224 225 224 225 225 224 223 222 222 224 224 223 223 222 222 222 221 220 221 222 221 221 222 223 224 225 223 224 227 226 223 222 222 223 227 229 229 228 229 230 231 232 231 227 226
349 348 351 355 0 7 20 31 69 199 198 195 192 189 189 192 192 188 187 187 187 189 194 197 200 201 202 203 202 202 203 205 206 207 208 210 211 213 215 217 219 221 223 224 225 225 226 226 224 224 223 223 224 223 222 222 221 220 219 219 219 221 222 221 221 222 223 224 224 222 222 225 226 223 221 222 224 226 229 230 229 230 231 232 233 233 230 230
352 350 351 358 10 20 36 60 86 130 163 172 176 180 181 183 186 184 182 181 182 187 191 195 197 199 200 201 202 203 202 203 205 206 207 209 210 212 215 217 219 221 222 223 224 224 225 224 223 223 222 221 222 221 220 220 220 219 217 215 216 217 218 219 220 222 223 224 225 224 223 224 225 223 222 223 224 226 229 230 229 229 230 231 233 234 233 233
352 349 351 4 17 28 49 75 97 122 141 150 154 163 168 169 173 176 176 178 182 186 189 191 194 196 198 199 201 203 203 202 204 205 206 208 209 211 213 215 218 220 221 222 222 222 223 221 220 221 220 219 219 219 218 219 219 217 216 216 216 215 215 216 218 221 223 224 226 227 226 225 226 225 224 224 225 226 228 229 228 228 229 230 232 234 235 235
352 351 357 11 23 35 58 80 101 124 139 147 151 157 160 159 160 165 171 177 182 185 186 186 188 191 194 198 200 201 202 203 203 204 205 206 208 210 212 215 218 219 219 221 222 222 222 220 220 221 220 220 220 220 220 221 220 217 217 219 218 216 215 215 217 219 221 222 224 226 227 226 226 225 223 225 226 226 227 229 228 229 229 230 231 234 235 236
354 356 8 22 32 43 62 83 103 118 129 141 148 155 161 163 164 165 169 174 179 182 182 183 184 187 191 194 197 199 201 202 203 203 203 205 206 208 211 214 216 217 218 219 220 220 220 218 219 220 220 221 223 224 225 226 222 218 217 218 217 216 216 216 217 219 221 222 222 224 225 225 225 225 225 225 226 226 227 228 228 230 231 231 231 233 235 236
358 5 20 34 46 56 68 84 101 113 123 134 143 150 159 165 167 168 169 173 176 178 180 182 185 188 190 192 193 196 198 201 202 203 204 205 206 207 210 213 214 216 217 218 218 218 218 216 217 218 217 218 219 219 220 219 217 216 217 218 217 216 217 217 218 220 221 221 222 223 225 225 224 225 226 226 225 226 226 226 226 228 231 231 230 231 233 235
3 14 31 47 61 70 79 89 99 109 119 130 140 148 156 161 164 166 168 172 175 176 178 181 185 188 190 191 191 193 196 198 200 202 203 204 205 207 210 212 214 215 217 217 217 217 217 216 216 217 217 217 216 215 214 213 212 214 216 216 216 217 218 217 218 221 221 222 222 224 225 226 224 224 226 227 227 227 227 226 225 227 230 231 231 230 231 233
7 20 38 61 76 83 90 96 102 108 115 124 133 140 148 154 159 163 166 170 173 176 178 180 183 187 189 191 191 191 194 197 199 201 201 202 204 206 209 211 213 214 215 215 215 216 215 215 215 216 217 218 217 215 214 212 210 212 214 215 216 217 218 218 219 221 222 222 224 225 227 228 227 227 227 228 229 229 229 227 226 227 229 231 231 231 231 233
9 23 42 66 84 93 98 101 105 110 115 123 131 137 143 148 154 159 163 167 171 176 179 180 182 185 187 189 190 190 192 195 198 199 201 202 204 205 208 210 211 212 213 213 213 214 214 213 215 216 217 217 216 215 214 212 211 211 212 213 215 215 216 217 219 222 222 222 225 227 227 229 229 229 229 228 228 230 230 229 228 228 229 231 232 232 232 232
16 33 52 68 79 88 97 101 105 109 115 122 128 134 139 144 149 154 160 165 168 172 177 178 179 181 183 186 188 189 191 194 196 198 200 203 206 206 207 209 210 210 211 213 214 213 213 213 215 216 216 216 216 215 214 212 212 212 212 212 213 213 213 214 216 218 219 220 224 226 227 229 231 232 232 231 232 233 233 232 230 229 229 231 232 233 232 232
27 46 63 74 82 88 95 101 106 110 115 120 124 129 135 138 143 148 153 159 163 166 169 172 173 176 179 183 187 189 191 192 194 196 198 201 205 207 209 209 209 209 210 212 213 213 213 212 213 216 216 216 215 213 211 210 212 213 212 213 214 214 214 214 215 217 218 219 222 224 224 227 230 231 233 232 233 235 235 234 233 231 231 232 233 233 233 232
31 57 72 79 86 92 97 102 108 112 115 119 122 126 130 133 138 143 147 151 157 159 162 166 169 173 177 180 184 188 191 192 193 194 197 199 202 205 207 209 209 209 209 210 211 213 213 212 212 214 214 213 211 211 211 211 212 212 213 214 216 216 216 217 217 219 220 221 223 224 224 225 225 227 230 231 231 232 233 233 233 233 232 232 233 234 234 233
Height
10655 10653 10652 10651 10650 10649 10648 10647 10647 10646 10646 10645 10645 10645 10645 10645 10645 10645 10645 10646 10646 10647 10648 10648 10650 10650 10650 10650 10649 10651 10652 10654 10656 10659 10660 10661 10666 10670 10669 10673 10677 10678 10681 10685 10688 10690 10692 10695 10699 10701 10703 10707 10710 10712 10718 10720 10721 10724 10726 10734 10740 10743 10744 10745 10750 10748 10752 10754 10758 10775 10775 10768 10776 10782 10785 10786 10784 10782 10789 10793 10793 10796 10795 10799 10808 10811 10810 10807
10649 10646 10645 10644 10643 10641 10641 10640 10639 10639 10638 10638 10637 10637 10637 10637 10638 10638 10638 10639 10639 10640 10641 10642 10643 10643 10644 10643 10643 10645 10646 10648 10650 10652 10654 10656 10659 10662 10662 10666 10670 10672 10675 10678 10681 10683 10686 10689 10692 10695 10697 10701 10703 10706 10713 10713 10715 10719 10721 10728 10733 10737 10737 10738 10740 10742 10750 10748 10755 10772 10768 10764 10771 10777 10780 10778 10779 10780 10782 10786 10788 10791 10792 10797 10806 10809 10807 10803
10642 10640 10638 10637 10635 10634 10633 10633 10632 10631 10631 10631 10630 10630 10630 10630 10631 10631 10631 10632 10632 10633 10634 10635 10636 10636 10636 10636 10637 10639 10640 10642 10643 10647 10649 10649 10652 10655 10657 10659 10663 10665 10668 10671 10674 10677 10680 10682 10685 10689 10690 10694 10697 10701 10706 10707 10710 10713 10716 10722 10726 10729 10728 10730 10735 10739 10744 10741 10752 10766 10762 10761 10765 10771 10774 10771 10775 10775 10774 10779 10783 10786 10790 10795 10802 10804 10804 10801
10634 10632 10631 10630 10628 10627 10626 10625 10625 10624 10623 10624 10623 10623 10623 10623 10623 10624 10624 10625 10625 10626 10627 10628 10629 10629 10629 10629 10631 10633 10635 10635 10638 10643 10641 10641 10646 10649 10651 10652 10655 10658 10661 10663 10667 10671 10673 10676 10680 10682 10683 10688 10692 10695 10700 10703 10705 10706 10710 10716 10718 10719 10719 10725 10732 10732 10735 10739 10749 10757 10757 10757 10758 10766 10768 10767 10770 10768 10769 10775 10779 10782 10787 10792 10797 10799 10800 10799
10626 10624 10623 10622 10621 10619 10618 10617 10617 10617 10616 10616 10616 10616 10616 10616 10616 10616 10617 10617 10618 10619 10620 10621 10621 10622 10621 10622 10624 10627 10628 10629 10636 10637 10633 10636 10640 10642 10644 10645 10648 10651 10654 10657 10662 10665 10667 10670 10673 10675 10678 10682 10686 10690 10695 10697 10697 10699 10705 10709 10710 10712 10714 10722 10725 10724 10731 10737 10742 10749 10752 10750 10754 10762 10760 10760 10763 10761 10767 10773 10775 10777 10782 10787 10791 10795 10795 10795
10618 10616 10615 10614 10612 10611 10610 10610 10609 10609 10609 10609 10608 10608 10608 10609 10608 10608 10609 10610 10611 10612 10612 10613 10614 10614 10614 10615 10617 10619 10621 10624 10631 10628 10625 10631 10632 10635 10638 10639 10641 10645 10648 10651 10655 10658 10660 10664 10667 10669 10673 10676 10680 10684 10687 10688 10691 10694 10700 10703 10703 10707 10710 10715 10717 10720 10727 10731 10735 10741 10744 10745 10752 10755 10751 10755 10756 10757 10765 10768 10769 10773 10777 10781 10786 10789 10789 10790
10610 10608 10607 10605 10604 10603 10601 10601 10600 10600 10600 10600 10600 10600 10600 10601 10601 10601 10601 10602 10603 10604 10605 10606 10607 10607 10607 10608 10609 10613 10615 10618 10622 10620 10619 10624 10626 10629 10632 10633 10636 10639 10643 10645 10648 10651 10654 10657 10661 10664 10666 10669 10673 10677 10679 10681 10686 10689 10695 10698 10697 10702 10705 10707 10713 10717 10721 10725 10729 10734 10737 10742 10746 10743 10744 10750 10750 10753 10759 10761 10765 10769 10772 10776 10782 10785 10784 10784
10601 10600 10598 10596 10595 10593 10592 10591 10591 10590 10590 10591 10592 10591 10592 10592 10592 10593 10593 10594 10595 10596 10598 10598 10599 10599 10599 10601 10603 10607 10608 10608 10614 10615 10613 10618 10621 10623 10625 10628 10631 10634 10637 10638 10640 10643 10646 10650 10654 10656 10659 10663 10666 10670 10672 10674 10682 10685 10689 10691 10690 10696 10699 10701 10708 10711 10715 10719 10722 10727 10732 10736 10736 10735 10741 10743 10743 10749 10753 10756 10761 10763 10766 10772 10780 10782 10780 10780
10591 10590 10588 10586 10585 10583 10582 10581 10581 10580 10580 10581 10581 10582 10582 10583 10583 10584 10585 10586 10587 10588 10589 10590 10591 10591 10591 10594 10596 10600 10600 10599 10606 10608 10608 10612 10615 10617 10620 10622 10625 10628 10631 10632 10633 10636 10640 10644 10647 10649 10653 10655 10659 10664 10666 10670 10678 10679 10680 10684 10686 10690 10694 10697 10703 10707 10710 10713 10717 10722 10726 10727 10728 10731 10736 10734 10737 10745 10747 10751 10755 10757 10761 10767 10776 10778 10776 10776
10581 10579 10577 10576 10574 10573 10572 10571 10570 10570 10570 10570 10570 10571 10572 10573 10574 10574 10575 10576 10578 10580 10580 10582 10582 10583 10585 10586 10590 10593 10590 10591 10598 10602 10602 10606 10608 10611 10614 10616 10619 10622 10624 10626 10627 10630 10634 10637 10639 10641 10644 10648 10654 10659 10662 10666 10671 10672 10675 10679 10682 10685 10689 10694 10698 10702 10705 10708 10713 10717 10719 10719 10722 10728 10727 10726 10735 10741 10743 10746 10749 10752 10756 10761 10770 10772 10770 10770
10569 10567 10566 10564 10563 10561 10560 10559 10559 10558 10559 10559 10559 10560 10561 10562 10563 10564 10566 10566 10568 10571 10573 10573 10573 10576 10577 10579 10584 10582 10579 10583 10591 10595 10596 10599 10601 10605 10608 10609 10613 10616 10619 10621 10622 10625 10627 10629 10631 10634 10639 10644 10649 10653 10657 10660 10663 10668 10670 10673 10677 10679 10684 10690 10693 10698 10700 10704 10708 10710 10711 10713 10720 10722 10718 10723 10733 10736 10738 10741 10743 10746 10750 10755 10762 10765 10765 10764
10557 10555 10553 10551 10550 10549 10548 10547 10546 10546 10546 10547 10548 10548 10549 10550 10551 10554 10555 10556 10558 10561 10564 10564 10565 10568 10569 10574 10575 10568 10569 10577 10584 10588 10589 10591 10595 10598 10601 10603 10606 10610 10613 10615 10617 10618 10620 10622 10624 10629 10635 10638 10642 10646 10652 10654 10657 10665 10665 10666 10672 10674 10680 10686 10688 10693 10695 10699 10702 10703 10706 10710 10715 10713 10711 10721 10729 10731 10733 10735 10737 10741 10746 10750 10754 10757 10758 10759
10544 10542 10540 10538 10536 10535 10534 10534 10533 10533 10533 10534 10535 10536 10537 10538 10539 10541 10544 10546 10547 10550 10554 10554 10557 10558 10563 10569 10562 10555 10563 10571 10575 10580 10581 10583 10588 10591 10594 10597 10600 10604 10607 10609 10611 10612 10614 10616 10619 10625 10629 10632 10636 10641 10647 10650 10653 10660 10658 10659 10666 10669 10677 10681 10682 10687 10690 10693 10696 10698 10702 10706 10708 10706 10708 10717 10723 10728 10729 10729 10733 10736 10742 10747 10749 10751 10752 10753
10530 10528 10525 10523 10522 10520 10519 10519 10519 10519 10519 10520 10521 10522 10524 10525 10527 10529 10531 10534 10535 10540 10543 10545 10547 10549 10557 10559 10546 10547 10558 10563 10568 10572 10572 10577 10580 10583 10588 10590 10594 10597 10600 10603 10604 10606 10608 10611 10615 10620 10623 10627 10630 10636 10643 10644 10647 10652 10650 10654 10661 10667 10673 10675 10676 10682 10685 10688 10691 10693 10698 10700 10701 10701 10706 10712 10717 10723 10724 10726 10731 10733 10739 10744 10745 10747 10748 10749
10515 10512 10510 10507 10505 10504 10503 10503 10502 10503 10503 10504 10505 10507 10509 10511 10514 10515 10519 10521 10523 10528 10531 10535 10537 10540 10551 10546 10534 10542 10550 10555 10561 10561 10565 10571 10572 10576 10580 10583 10588 10591 10594 10597 10598 10601 10604 10607 10612 10613 10617 10621 10624 10633 10638 10637 10640 10644 10646 10652 10658 10664 10666 10667 10671 10678 10681 10683 10685 10688 10692 10695 10696 10697 10702 10708 10712 10718 10722 10726 10729 10731 10736 10741 10744 10747 10747 10745
10499 10495 10492 10490 10488 10486 10485 10485 10485 10486 10486 10487 10488 10490 10493 10496 10499 10502 10505 10508 10511 10515 10519 10525 10526 10531 10541 10534 10526 10534 10540 10547 10552 10553 10560 10563 10563 10568 10571 10576 10581 10584 10588 10590 10592 10596 10599 10603 10605 10606 10612 10615 10620 10629 10628 10628 10634 10638 10645 10649 10653 10658 10658 10661 10668 10673 10675 10677 10681 10684 10687 10689 10691 10694 10699 10704 10707 10714 10720 10724 10727 10731 10737 10742 10743 10744 10745 10742
10481 10478 10474 10472 10470 10468 10467 10467 10467 10468 10469 10470 10471 10473 10477 10480 10483 10486 10490 10493 10497 10502 10507 10513 10516 10521 10529 10522 10519 10526 10532 10541 10543 10545 10553 10554 10556 10560 10562 10569 10574 10576 10580 10582 10586 10590 10593 10597 10599 10603 10609 10612 10616 10621 10621 10627 10634 10637 10642 10643 10647 10652 10650 10656 10664 10666 10669 10673 10677 10679 10682 10684 10686 10692 10697 10699 10704 10711 10717 10723 10728 10733 10741 10746 10744 10742 10742 10739
10462 10459 10456 10453 10451 10449 10448 10448 10448 10449 10450 10452 10453 10456 10459 10462 10466 10470 10474 10478 10482 10488 10495 10501 10504 10510 10514 10512 10513 10517 10524 10533 10534 10537 10543 10544 10548 10551 10553 10560 10565 10569 10573 10576 10581 10584 10588 10592 10594 10599 10605 10609 10613 10616 10620 10627 10629 10630 10635 10637 10641 10644 10644 10652 10659 10660 10664 10669 10671 10673 10677 10679 10682 10691 10693 10694 10702 10709 10716 10725 10729 10734 10744 10749 10746 10743 10740 10736
10443 10439 10436 10433 10430 10429 10428 10428 10429 10430 10431 10433 10435 10438 10441 10445 10449 10453 10458 10462 10467 10476 10482 10486 10491 10497 10502 10504 10504 10507 10515 10521 10523 10528 10533 10536 10540 10543 10546 10551 10557 10563 10566 10571 10576 10579 10584 10586 10590 10598 10604 10607 10610 10612 10615 10618 10618 10621 10627 10630 10633 10636 10640 10646 10650 10654 10658 10663 10666 10669 10673 10674 10679 10688 10688 10690 10700 10706 10717 10728 10730 10733 10742 10748 10748 10745 10738 10735
10423 10419 10416 10413 10410 10409 10408 10408 10409 10411 10413 10413 10416 10419 10423 10427 10431 10436 10441 10446 10454 10462 10467 10471 10479 10485 10490 10491 10492 10498 10504 10508 10515 10520 10523 10529 10533 10535 10538 10544 10550 10555 10560 10566 10570 10573 10577 10581 10589 10597 10600 10601 10602 10604 10606 10608 10610 10614 10620 10623 10625 10632 10636 10635 10641 10649 10653 10658 10662 10664 10667 10670 10677 10683 10682 10688 10698 10705 10716 10727 10729 10729 10737 10746 10745 10740 10734 10733
10404 10401 10397 10394 10392 10390 10388 10388 10389 10391 10393 10394 10397 10401 10405 10408 10413 10419 10424 10432 10440 10447 10453 10458 10466 10473 10476 10478 10482 10487 10491 10497 10507 10511 10515 10521 10524 10527 10532 10537 10543 10549 10555 10559 10562 10566 10571 10579 10589 10591 10591 10593 10594 10596 10599 10601 10605 10609 10616 10620 10622 10629 10629 10627 10638 10647 10648 10653 10657 10659 10663 10666 10673 10677 10679 10686 10695 10703 10712 10721 10725 10728 10736 10740 10735 10731 10729 10728
10387 10383 10380 10377 10375 10372 10371 10370 10371 10373 10374 10376 10379 10382 10387 10390 10396 10402 10407 10416 10425 10432 10439 10443 10453 10461 10461 10465 10470 10473 10480 10489 10497 10502 10507 10511 10516 10521 10525 10529 10536 10542 10546 10550 10554 10562 10570 10578 10583 10582 10583 10586 10587 10591 10593 10595 10600 10605 10612 10615 10616 10622 10620 10621 10635 10644 10643 10648 10653 10655 10659 10662 10668 10673 10676 10684 10692 10699 10707 10714 10721 10727 10729 10724 10720 10721 10720 10720
10370 10367 10364 10361 10358 10356 10355 10354 10355 10356 10357 10359 10361 10365 10370 10374 10380 10385 10390 10401 10410 10418 10426 10430 10440 10447 10445 10451 10459 10462 10473 10481 10486 10493 10497 10502 10509 10513 10517 10523 10529 10533 10537 10545 10552 10559 10567 10572 10574 10573 10575 10578 10582 10587 10587 10589 10596 10602 10606 10608 10608 10613 10613 10617 10633 10640 10639 10643 10647 10650 10655 10659 10665 10670 10674 10681 10688 10695 10702 10711 10717 10717 10713 10708 10708 10710 10708 10713
10355 10352 10349 10346 10344 10342 10340 10340 10341 10342 10342 10343 10346 10350 10355 10359 10364 10370 10376 10386 10396 10404 10411 10415 10424 10433 10432 10437 10447 10454 10463 10469 10475 10483 10488 10494 10501 10505 10510 10516 10520 10525 10533 10540 10546 10552 10559 10561 10562 10564 10567 10572 10578 10580 10581 10587 10594 10597 10599 10599 10602 10607 10608 10614 10629 10634 10631 10635 10641 10647 10652 10655 10660 10666 10671 10677 10683 10690 10698 10705 10706 10704 10701 10701 10703 10705 10705 10710
10342 10339 10336 10333 10331 10329 10327 10327 10327 10329 10330 10329 10332 10336 10341 10346 10350 10357 10363 10372 10383 10389 10394 10399 10409 10419 10418 10422 10439 10448 10451 10457 10466 10475 10480 10487 10493 10497 10503 10507 10512 10520 10527 10533 10538 10544 10548 10550 10553 10557 10560 10567 10573 10574 10577 10585 10589 10589 10592 10594 10598 10602 10604 10611 10624 10628 10626 10631 10639 10645 10648 10649 10655 10661 10666 10672 10677 10685 10691 10695 10696 10693 10693 10694 10697 10700 10703 10706
10330 10326 10324 10321 10318 10317 10315 10315 10315 10317 10317 10317 10320 10325 10329 10333 10337 10345 10351 10360 10371 10375 10379 10386 10395 10402 10403 10413 10432 10435 10437 10447 10457 10465 10472 10478 10483 10489 10495 10499 10506 10513 10518 10524 10529 10534 10539 10544 10548 10552 10556 10563 10567 10569 10573 10580 10581 10583 10587 10591 10593 10597 10601 10610 10620 10623 10624 10627 10633 10640 10642 10644 10652 10658 10663 10668 10673 10680 10684 10687 10690 10688 10686 10688 10691 10695 10698 10701
10319 10315 10312 10309 10307 10305 10303 10303 10305 10306 10306 10306 10310 10314 10317 10321 10327 10334 10339 10349 10359 10360 10364 10372 10381 10388 10392 10404 10417 10418 10426 10439 10446 10455 10463 10467 10473 10481 10487 10492 10499 10504 10509 10515 10522 10529 10535 10538 10542 10546 10553 10559 10562 10565 10570 10574 10575 10578 10583 10584 10587 10593 10599 10608 10616 10618 10618 10620 10627 10635 10635 10639 10650 10656 10659 10664 10669 10674 10678 10680 10684 10684 10683 10684 10686 10690 10694 10696
10309 10305 10302 10299 10296 10294 10293 10294 10295 10295 10296 10297 10300 10304 10306 10310 10317 10324 10329 10339 10345 10345 10351 10360 10370 10376 10378 10391 10402 10408 10420 10430 10437 10448 10453 10457 10465 10473 10479 10486 10492 10496 10502 10510 10519 10524 10526 10529 10537 10543 10550 10555 10557 10560 10564 10567 10568 10572 10576 10578 10583 10590 10596 10602 10608 10610 10610 10613 10623 10630 10632 10639 10649 10651 10654 10660 10665 10670 10673 10674 10677 10679 10679 10679 10681 10686 10691 10695
10299 10295 10292 10289 10286 10284 10284 10285 10285 10285 10286 10288 10291 10295 10297 10302 10308 10314 10321 10329 10332 10335 10342 10350 10358 10361 10367 10382 10392 10400 10411 10418 10426 10436 10440 10447 10458 10465 10471 10478 10482 10487 10495 10504 10510 10513 10516 10524 10533 10539 10544 10547 10550 10553 10556 10562 10563 10565 10571 10575 10580 10587 10590 10595 10601 10603 10602 10609 10621 10628 10631 10638 10644 10646 10650 10657 10661 10665 10667 10668 10670 10672 10673 10674 10677 10681 10687 10692
10290 10286 10282 10279 10277 10275 10275 10275 10276 10276 10277 10279 10283 10285 10289 10294 10299 10306 10314 10318 10318 10323 10330 10336 10345 10352 10361 10374 10380 10389 10400 10405 10416 10426 10432 10440 10450 10457 10463 10469 10473 10480 10490 10497 10499 10504 10511 10520 10528 10533 10537 10538 10541 10546 10552 10558 10556 10558 10569 10574 10577 10581 10583 10590 10596 10596 10598 10610 10623 10626 10628 10633 10636 10641 10647 10653 10657 10659 10659 10661 10664 10667 10669 10670 10673 10677 10682 10687
10281 10278 10274 10271 10269 10268 10267 10266 10268 10269 10269 10271 10274 10277 10281 10285 10291 10299 10302 10301 10303 10310 10317 10325 10336 10345 10354 10362 10369 10380 10389 10396 10410 10420 10425 10434 10443 10449 10455 10461 10468 10475 10484 10489 10493 10501 10508 10517 10525 10527 10527 10529 10535 10541 10548 10552 10548 10555 10569 10570 10570 10575 10577 10585 10591 10591 10601 10615 10622 10620 10621 10625 10631 10639 10644 10647 10651 10653 10655 10657 10660 10663 10667 10669 10671 10673 10675 10681
10274 10270 10267 10264 10262 10261 10260 10259 10260 10262 10263 10264 10266 10269 10273 10277 10283 10287 10287 10287 10294 10303 10310 10318 10328 10336 10343 10350 10359 10371 10380 10391 10403 10410 10416 10427 10437 10443 10450 10459 10465 10472 10482 10487 10489 10498 10505 10513 10519 10516 10517 10525 10532 10537 10543 10544 10542 10556 10567 10563 10563 10570 10574 10582 10588 10594 10606 10613 10613 10613 10616 10622 10629 10637 10639 10641 10647 10651 10653 10654 10657 10660 10664 10668 10671 10671 10670 10677
10268 10264 10261 10258 10257 10255 10253 10253 10254 10255 10256 10258 10260 10263 10266 10269 10273 10276 10276 10279 10288 10296 10304 10312 10320 10327 10333 10340 10352 10362 10371 10383 10394 10400 10408 10419 10426 10433 10442 10451 10457 10467 10477 10477 10479 10490 10498 10506 10510 10509 10515 10525 10529 10533 10540 10542 10545 10558 10563 10558 10562 10569 10574 10583 10589 10596 10603 10604 10605 10608 10611 10618 10626 10629 10631 10637 10644 10647 10648 10650 10653 10657 10660 10666 10671 10670 10669 10674
10262 10259 10256 10253 10251 10249 10248 10247 10248 10249 10250 10252 10254 10257 10259 10262 10264 10267 10268 10273 10282 10292 10300 10306 10313 10321 10328 10337 10347 10356 10366 10377 10386 10391 10400 10411 10418 10425 10435 10443 10450 10459 10464 10463 10470 10484 10495 10502 10506 10508 10515 10522 10525 10532 10540 10539 10542 10555 10556 10552 10558 10565 10572 10581 10585 10590 10594 10596 10600 10601 10605 10615 10619 10621 10628 10637 10640 10640 10642 10645 10648 10653 10655 10661 10667 10668 10668 10671
10258 10254 10251 10248 10246 10244 10243 10242 10243 10244 10245 10247 10249 10252 10254 10257 10259 10261 10264 10270 10279 10289 10295 10301 10310 10318 10325 10333 10341 10350 10360 10370 10378 10385 10394 10405 10413 10422 10432 10439 10445 10451 10455 10460 10470 10482 10491 10494 10497 10501 10508 10515 10522 10529 10532 10529 10536 10547 10545 10545 10555 10562 10568 10574 10576 10582 10586 10589 10594 10597 10603 10611 10614 10618 10627 10634 10634 10633 10637 10640 10643 10647 10651 10656 10661 10662 10665 10669
10253 10250 10247 10244 10242 10240 10239 10238 10238 10239 10241 10242 10245 10247 10250 10254 10257 10260 10264 10270 10278 10285 10292 10299 10307 10314 10319 10325 10334 10343 10352 10362 10371 10379 10390 10400 10407 10416 10424 10432 10439 10445 10452 10459 10467 10479 10486 10485 10487 10495 10501 10509 10516 10520 10521 10523 10534 10540 10538 10546 10557 10559 10561 10567 10571 10577 10582 10586 10591 10595 10600 10605 10610 10614 10620 10626 10626 10626 10631 10635 10637 10641 10646 10650 10653 10655 10660 10666
10250 10247 10244 10242 10239 10238 10236 10235 10235 10236 10237 10239 10241 10244 10247 10251 10255 10259 10263 10269 10275 10282 10288 10294 10301 10306 10313 10321 10331 10340 10349 10358 10366 10374 10385 10394 10402 10411 10418 10425 10432 10438 10446 10453 10461 10473 10478 10476 10483 10492 10496 10503 10508 10509 10513 10520 10528 10533 10538 10546 10548 10547 10553 10562 10566 10572 10579 10584 10588 10593 10597 10601 10606 10609 10613 10621 10622 10620 10624 10629 10631 10636 10640 10644 10646 10649 10655 10663
10248 10244 10242 10240 10238 10236 10234 10233 10233 10233 10234 10236 10239 10241 10244 10247 10251 10255 10261 10267 10273 10279 10285 10291 10297 10303 10310 10319 10329 10338 10347 10355 10362 10371 10380 10389 10398 10407 10413 10420 10427 10433 10441 10447 10455 10466 10467 10469 10479 10485 10489 10497 10500 10502 10508 10516 10524 10530 10534 10536 10538 10543 10553 10559 10564 10572 10579 10582 10586 10591 10593 10595 10600 10604 10609 10616 10616 10615 10619 10623 10627 10631 10634 10637 10640 10644 10652 10659
10247 10244 10241 10239 10236 10234 10233 10232 10232 10232 10233 10235 10237 10239 10242 10245 10248 10253 10259 10265 10271 10277 10283 10289 10295 10302 10309 10316 10324 10333 10342 10350 10358 10367 10376 10385 10394 10401 10407 10417 10423 10429 10437 10443 10451 10460 10462 10466 10476 10480 10485 10491 10491 10496 10506 10514 10521 10525 10526 10529 10537 10544 10550 10555 10562 10570 10575 10577 10582 10587 10588 10590 10596 10601 10605 10610 10610 10611 10613 10617 10622 10625 10628 10632 10635 10640 10648 10653
10246 10243 10240 10237 10235 10233 10232 10231 10231 10232 10232 10234 10236 10238 10241 10244 10248 10253 10259 10264 10270 10276 10281 10286 10293 10299 10306 10314 10321 10329 10337 10345 10353 10362 10371 10380 10388 10395 10403 10412 10417 10424 10432 10438 10446 10455 10456 10462 10470 10474 10480 10484 10488 10498 10509 10513 10517 10520 10524 10531 10538 10542 10546 10554 10561 10565 10569 10573 10577 10582 10585 10586 10590 10596 10601 10604 10605 10606 10608 10612 10617 10620 10623 10627 10630 10636 10642 10643
10245 10242 10239 10237 10235 10233 10232 10231 10231 10231 10232 10233 10235 10238 10240 10244 10249 10253 10258 10264 10270 10275 10279 10284 10290 10296 10304 10312 10319 10326 10333 10341 10349 10358 10366 10373 10383 10392 10400 10408 10414 10421 10428 10434 10443 10450 10452 10459 10467 10471 10477 10483 10490 10499 10504 10507 10510 10515 10522 10530 10535 10539 10545 10552 10557 10561 10564 10567 10571 10577 10580 10581 10585 10592 10596 10597 10600 10602 10603 10607 10612 10615 10619 10623 10625 10629 10632 10633
10246 10243 10241 10238 10236 10234 10233 10232 10232 10232 10233 10234 10236 10238 10241 10245 10249 10254 10259 10264 10269 10273 10277 10282 10288 10295 10303 10311 10318 10325 10331 10339 10347 10355 10363 10372 10382 10390 10398 10407 10412 10416 10423 10432 10440 10444 10448 10457 10463 10466 10473 10479 10484 10490 10495 10499 10503 10509 10517 10522 10526 10533 10540 10547 10553 10555 10558 10562 10566 10571 10574 10577 10582 10587 10591 10593 10596 10597 10599 10603 10607 10611 10616 10618 10618 10620 10623 10626
10249 10246 10243 10240 10238 10236 10234 10233 10233 10233 10234 10235 10237 10239 10242 10246 10250 10255 10260 10264 10268 10272 10277 10283 10290 10297 10304 10310 10317 10324 10331 10339 10346 10353 10362 10371 10380 10387 10395 10402 10405 10410 10420 10428 10432 10436 10443 10452 10456 10459 10465 10470 10475 10481 10487 10491 10497 10506 10513 10516 10522 10530 10537 10541 10545 10547 10551 10557 10562 10566 10571 10576 10580 10583 10587 10589 10590 10592 10595 10598 10602 10608 10612 10611 10610 10612 10617 10621
10250 10247 10244 10242 10240 10238 10236 10235 10235 10235 10235 10236 10238 10240 10243 10246 10250 10254 10259 10264 10269 10274 10280 10286 10292 10298 10304 10311 10317 10324 10332 10338 10344 10352 10361 10369 10377 10384 10392 10396 10399 10408 10418 10422 10427 10434 10441 10448 10451 10453 10460 10466 10472 10478 10484 10490 10498 10507 10511 10514 10522 10527 10530 10533 10537 10541 10547 10553 10558 10563 10567 10571 10574 10577 10582 10583 10585 10589 10591 10593 10598 10605 10606 10604 10605 10608 10611 10616
10253 10250 10247 10244 10242 10240 10239 10238 10238 10238 10238 10239 10240 10242 10244 10246 10248 10252 10257 10262 10269 10275 10281 10287 10292 10297 10302 10308 10316 10324 10331 10337 10344 10352 10359 10365 10373 10381 10387 10391 10397 10406 10412 10415 10422 10430 10437 10443 10446 10451 10460 10469 10475 10484 10490 10495 10501 10505 10506 10510 10517 10521 10525 10530 10534 10538 10544 10549 10554 10558 10560 10565 10569 10572 10576 10578 10581 10584 10585 10589 10596 10598 10597 10597 10600 10603 10606 10611
10255 10252 10249 10247 10245 10243 10242 10241 10241 10241 10241 10242 10243 10245 10247 10249 10251 10254 10258 10263 10269 10275 10280 10286 10292 10297 10302 10307 10315 10322 10329 10336 10344 10351 10357 10364 10372 10378 10383 10389 10395 10401 10405 10412 10421 10428 10433 10438 10442 10449 10458 10464 10470 10478 10484 10488 10493 10498 10501 10507 10514 10518 10522 10527 10531 10535 10541 10545 10549 10552 10555 10559 10564 10567 10571 10573 10575 10577 10580 10585 10589 10589 10589 10592 10595 10599 10603 10605
10258 10255 10252 10249 10247 10246 10245 10244 10244 10244 10244 10245 10247 10248 10250 10252 10255 10258 10261 10265 10270 10275 10280 10286 10291 10297 10303 10308 10314 10321 10328 10335 10342 10348 10356 10364 10371 10376 10381 10386 10392 10397 10404 10414 10421 10425 10429 10435 10441 10447 10452 10456 10463 10470 10473 10479 10487 10492 10497 10504 10509 10513 10517 10523 10528 10532 10536 10541 10546 10548 10549 10553 10558 10563 10565 10567 10570 10572 10575 10579 10581 10582 10584 10587 10590 10594 10597 10599
10261 10258 10255 10252 10250 10249 10248 10247 10247 10247 10248 10249 10250 10252 10254 10257 10259 10262 10264 10268 10272 10276 10281 10286 10291 10297 10303 10308 10314 10320 10326 10333 10339 10345 10353 10360 10366 10372 10378 10383 10389 10397 10405 10412 10416 10420 10426 10434 10439 10443 10448 10455 10462 10466 10469 10474 10481 10485 10492 10499 10504 10509 10515 10521 10525 10527 10532 10539 10542 10542 10544 10549 10555 10558 10560 10564 10567 10568 10570 10573 10576 10578 10581 10583 10586 10589 10593 10596
10265 10262 10259 10256 10254 10252 10252 10251 10251 10252 10252 10253 10254 10256 10258 10260 10263 10265 10268 10272 10276 10280 10283 10287 10292 10298 10304 10309 10315 10320 10326 10332 10338 10346 10353 10359 10364 10370 10376 10382 10389 10396 10403 10407 10411 10417 10425 10431 10435 10439 10445 10452 10456 10460 10465 10471 10477 10482 10489 10494 10499 10505 10511 10516 10519 10523 10530 10535 10535 10536 10541 10546 10548 10552 10556 10561 10563 10563 10564 10568 10572 10574 10577 10578 10581 10584 10588 10592
10269 10266 10264 10262 10260 10258 10257 10257 10256 10257 10257 10258 10259 10260 10262 10264 10266 10269 10272 10275 10279 10283 10287 10291 10295 10300 10305 10310 10315 10320 10326 10333 10341 10349 10356 10361 10366 10371 10375 10381 10388 10394 10400 10404 10409 10416 10423 10428 10432 10436 10441 10446 10451 10457 10465 10472 10476 10480 10485 10489 10493 10498 10503 10508 10513 10518 10523 10527 10528 10532 10538 10541 10543 10548 10553 10557 10558 10557 10560 10563 10566 10569 10572 10574 10577 10580 10584 10588
10274 10271 10269 10267 10265 10264 10263 10262 10261 10262 10262 10263 10264 10265 10266 10268 10270 10273 10276 10279 10282 10285 10289 10294 10298 10302 10306 10311 10317 10322 10327 10334 10341 10348 10355 10361 10367 10372 10376 10381 10386 10392 10397 10403 10409 10414 10419 10425 10430 10433 10438 10445 10451 10457 10463 10467 10471 10475 10481 10485 10490 10496 10501 10506 10510 10513 10517 10521 10523 10528 10533 10535 10540 10544 10547 10548 10550 10552 10554 10557 10561 10565 10568 10571 10573 10576 10579 10585
10278 10276 10274 10273 10271 10270 10269 10268 10267 10267 10267 10268 10269 10270 10271 10273 10275 10277 10280 10283 10286 10289 10292 10296 10300 10304 10308 10313 10318 10324 10330 10335 10340 10346 10352 10357 10362 10368 10374 10380 10385 10390 10395 10400 10405 10410 10416 10422 10426 10430 10437 10444 10449 10454 10458 10461 10465 10472 10479 10485 10490 10495 10499 10503 10507 10510 10514 10518 10522 10525 10528 10529 10534 10539 10538 10540 10543 10546 10548 10552 10555 10560 10564 10567 10569 10572 10577 10583